Tracking 18984 objects as of 24-Feb-2018
HD Live streaming from Space Station
objects crossing your sky now

ANIK A1 (TELESAT 1)

Track ANIK A1 (TELESAT 1) now!
ANIK A1 (TELESAT 1) is classified as:


NORAD ID: 6278
Int'l Code: 1972-090A
Perigee: 36,158.3 km
Apogee: 36,248.1 km
Inclination: 12.8 °
Period: 1,457.1 minutes
Semi major axis: 42574 km
RCS: 3.1432 m2 (large)
Launch date: November 10, 1972
Source: Canada (CA)
Launch site: AIR FORCE EASTERN TEST RANGE (AFETR)
aabbcc
Your satellite tracking list
Your tracking list is empty




NASA's NSSDC Master Catalog

Two Line Element Set (TLE):
1  6278U 72090A   18054.41841696 -.00000206 +00000-0 +00000-0 0  9997
2  6278 012.7853 323.6977 0010542 103.2443 189.7975 00.98828765089025
Source of the keplerian elements: AFSPC